TimeCST,TemperatureF,Dew PointF,Humidity,Sea Level PressureIn,VisibilityMPH,Wind Direction,Wind SpeedMPH,Gust SpeedMPH,PrecipitationIn,Events,Conditions,WindDirDegrees,DateUTC
12:15 AM,35.6,26.6,70,30.26,10.0,NNE,11.5,16.1,N/A,,Mostly Cloudy,30,2013-01-24 06:15:00
12:35 AM,33.8,24.8,70,30.26,10.0,NNE,10.4,-,N/A,,Overcast,30,2013-01-24 06:35:00
12:55 AM,33.8,24.8,70,30.28,10.0,NNE,11.5,-,N/A,,Overcast,30,2013-01-24 06:55:00
1:15 AM,33.8,23.0,65,30.29,10.0,NNE,8.1,-,N/A,,Overcast,30,2013-01-24 07:15:00
1:55 AM,33.8,23.0,65,30.29,10.0,NE,9.2,-,N/A,,Overcast,40,2013-01-24 07:55:00
2:15 AM,32.0,23.0,69,30.29,10.0,NE,13.8,18.4,N/A,,Overcast,40,2013-01-24 08:15:00
2:35 AM,32.0,21.2,64,30.30,10.0,NE,10.4,-,N/A,,Overcast,40,2013-01-24 08:35:00
2:55 AM,32.0,19.4,60,30.30,10.0,NE,12.7,19.6,N/A,,Overcast,50,2013-01-24 08:55:00
3:15 AM,32.0,19.4,60,30.31,10.0,NNE,10.4,16.1,N/A,,Overcast,30,2013-01-24 09:15:00
3:35 AM,32.0,19.4,60,30.31,10.0,NE,9.2,-,N/A,,Overcast,40,2013-01-24 09:35:00
3:55 AM,32.0,17.6,55,30.31,10.0,NE,10.4,19.6,N/A,,Overcast,50,2013-01-24 09:55:00
4:15 AM,32.0,19.4,60,30.31,10.0,NE,10.4,-,N/A,,Overcast,40,2013-01-24 10:15:00
4:35 AM,32.0,17.6,55,30.31,10.0,NE,10.4,-,N/A,,Overcast,50,2013-01-24 10:35:00
4:55 AM,30.2,17.6,60,30.32,10.0,NE,9.2,-,N/A,,Overcast,50,2013-01-24 10:55:00
5:15 AM,30.2,17.6,60,30.32,10.0,ENE,13.8,-,N/A,,Overcast,60,2013-01-24 11:15:00
5:35 AM,30.2,15.8,55,30.31,10.0,ENE,10.4,19.6,N/A,,Overcast,60,2013-01-24 11:35:00
5:55 AM,30.2,15.8,55,30.31,10.0,ENE,12.7,17.3,N/A,,Overcast,60,2013-01-24 11:55:00
6:15 AM,30.2,14.0,51,30.31,10.0,ENE,10.4,18.4,N/A,,Overcast,60,2013-01-24 12:15:00
6:35 AM,30.2,14.0,51,30.32,10.0,NE,12.7,16.1,N/A,,Overcast,50,2013-01-24 12:35:00
6:55 AM,30.2,14.0,51,30.32,10.0,ENE,17.3,-,N/A,,Overcast,70,2013-01-24 12:55:00
7:15 AM,28.4,14.0,55,30.32,10.0,ENE,15.0,-,N/A,,Overcast,70,2013-01-24 13:15:00
7:55 AM,28.4,14.0,55,30.32,10.0,ENE,12.7,-,N/A,,Overcast,70,2013-01-24 13:55:00
8:15 AM,30.2,12.2,47,30.32,10.0,ENE,12.7,17.3,N/A,,Overcast,70,2013-01-24 14:15:00
8:35 AM,30.2,12.2,47,30.33,10.0,ENE,13.8,18.4,N/A,,Overcast,60,2013-01-24 14:35:00
9:15 AM,30.2,12.2,47,30.34,10.0,ENE,15.0,21.9,N/A,,Overcast,70,2013-01-24 15:15:00
9:35 AM,30.2,12.2,47,30.34,10.0,East,11.5,19.6,N/A,,Overcast,80,2013-01-24 15:35:00
9:55 AM,30.2,12.2,47,30.33,10.0,East,12.7,18.4,N/A,,Overcast,80,2013-01-24 15:55:00
10:15 AM,32.0,14.0,48,30.33,10.0,East,12.7,-,N/A,,Overcast,80,2013-01-24 16:15:00
10:35 AM,32.0,14.0,48,30.32,10.0,East,12.7,-,N/A,,Overcast,100,2013-01-24 16:35:00
10:55 AM,32.0,12.2,44,30.32,10.0,East,11.5,18.4,N/A,,Overcast,90,2013-01-24 16:55:00
11:15 AM,32.0,12.2,44,30.32,10.0,East,15.0,19.6,N/A,,Overcast,80,2013-01-24 17:15:00
11:35 AM,32.0,14.0,48,30.31,10.0,East,12.7,17.3,N/A,,Overcast,90,2013-01-24 17:35:00
11:55 AM,32.0,12.2,44,30.30,10.0,East,10.4,17.3,N/A,,Overcast,90,2013-01-24 17:55:00
12:15 PM,32.0,12.2,44,30.29,10.0,East,10.4,-,N/A,,Overcast,90,2013-01-24 18:15:00
12:35 PM,32.0,12.2,44,30.28,10.0,East,15.0,-,N/A,,Overcast,80,2013-01-24 18:35:00
12:55 PM,32.0,12.2,44,30.28,10.0,East,12.7,17.3,N/A,,Overcast,80,2013-01-24 18:55:00
1:15 PM,32.0,12.2,44,30.27,10.0,East,9.2,16.1,N/A,,Overcast,80,2013-01-24 19:15:00
1:35 PM,32.0,12.2,44,30.26,10.0,East,9.2,16.1,N/A,,Overcast,80,2013-01-24 19:35:00
1:55 PM,32.0,12.2,44,30.24,10.0,East,10.4,18.4,N/A,,Overcast,100,2013-01-24 19:55:00
2:15 PM,32.0,12.2,44,30.21,10.0,ESE,13.8,-,N/A,,Overcast,110,2013-01-24 20:15:00
2:35 PM,32.0,14.0,48,30.21,10.0,East,17.3,-,N/A,,Overcast,100,2013-01-24 20:35:00
2:55 PM,32.0,14.0,48,30.19,10.0,ESE,12.7,-,N/A,,Overcast,120,2013-01-24 20:55:00
3:15 PM,32.0,14.0,48,30.19,10.0,ESE,15.0,-,N/A,,Overcast,110,2013-01-24 21:15:00
3:35 PM,32.0,15.8,51,30.19,10.0,ESE,16.1,20.7,N/A,,Overcast,110,2013-01-24 21:35:00
3:55 PM,32.0,14.0,48,30.19,10.0,ESE,15.0,19.6,N/A,,Overcast,110,2013-01-24 21:55:00
4:15 PM,32.0,15.8,51,30.19,10.0,ESE,10.4,-,N/A,,Overcast,110,2013-01-24 22:15:00
4:35 PM,32.0,15.8,51,30.18,10.0,ESE,12.7,18.4,N/A,,Overcast,120,2013-01-24 22:35:00
4:55 PM,32.0,17.6,55,30.17,10.0,ESE,12.7,18.4,N/A,,Overcast,120,2013-01-24 22:55:00
5:15 PM,32.0,17.6,55,30.15,10.0,ESE,13.8,-,N/A,,Overcast,110,2013-01-24 23:15:00
5:35 PM,32.0,17.6,55,30.15,10.0,ESE,11.5,-,N/A,,Overcast,110,2013-01-24 23:35:00
5:55 PM,32.0,17.6,55,30.16,10.0,East,10.4,-,N/A,,Overcast,100,2013-01-24 23:55:00
6:15 PM,32.0,17.6,55,30.16,10.0,ESE,11.5,-,N/A,,Overcast,120,2013-01-25 00:15:00
6:35 PM,32.0,17.6,55,30.16,10.0,East,10.4,-,N/A,,Overcast,100,2013-01-25 00:35:00
6:55 PM,32.0,17.6,55,30.14,10.0,ESE,13.8,-,N/A,,Overcast,110,2013-01-25 00:55:00
7:15 PM,32.0,19.4,60,30.12,10.0,ESE,16.1,19.6,N/A,,Overcast,110,2013-01-25 01:15:00
7:35 PM,32.0,19.4,60,30.13,10.0,ESE,13.8,20.7,N/A,,Overcast,110,2013-01-25 01:35:00
7:55 PM,32.0,19.4,60,30.13,10.0,ESE,15.0,20.7,N/A,,Overcast,110,2013-01-25 01:55:00
8:15 PM,32.0,17.6,55,30.14,10.0,ESE,12.7,-,N/A,,Overcast,110,2013-01-25 02:15:00
8:35 PM,32.0,17.6,55,30.15,10.0,ESE,9.2,-,N/A,,Overcast,110,2013-01-25 02:35:00
8:55 PM,32.0,15.8,51,30.14,10.0,ESE,12.7,-,N/A,,Overcast,120,2013-01-25 02:55:00
9:15 PM,32.0,15.8,51,30.13,10.0,ESE,11.5,-,N/A,,Overcast,120,2013-01-25 03:15:00
9:35 PM,32.0,15.8,51,30.13,10.0,ESE,13.8,17.3,N/A,,Overcast,120,2013-01-25 03:35:00
9:55 PM,32.0,15.8,51,30.13,10.0,SE,15.0,19.6,N/A,,Overcast,130,2013-01-25 03:55:00
10:15 PM,32.0,15.8,51,30.12,10.0,SE,12.7,-,N/A,,Overcast,140,2013-01-25 04:15:00
10:35 PM,32.0,17.6,55,30.12,10.0,SSE,15.0,-,N/A,,Overcast,150,2013-01-25 04:35:00
10:55 PM,32.0,17.6,55,30.13,10.0,SE,10.4,18.4,N/A,,Overcast,140,2013-01-25 04:55:00
11:15 PM,32.0,17.6,55,30.13,10.0,SE,9.2,-,N/A,,Overcast,140,2013-01-25 05:15:00
11:35 PM,30.2,21.2,69,30.13,10.0,SE,12.7,-,N/A,,Overcast,140,2013-01-25 05:35:00
11:55 PM,30.2,21.2,69,30.14,10.0,SE,11.5,16.1,N/A,,Overcast,130,2013-01-25 05:55:00